Regional Weather Roundup
Issued by NWS Green Bay, WI

Home | Current Version | Previous Version | Text Only | Print | Product List | Glossary On
Versions: 1 2 3 4 5 6 7 8 9 10 11 12 13 14 15 16 17 18 19 20 21 22 23 24 25 26 27 28 29 30 31 32 33 34 35 36 37 38 39 40 41 42 43 44 45 46 47 48 49 50
000
ASUS43 KGRB 290459
RWRGRB

NORTH-CENTRAL AND NORTHEAST WISCONSIN REGIONAL WEATHER ROUNDUP
NATIONAL WEATHER SERVICE GREEN BAY WI
1100 PM CST WED JAN 28 2015

WIZ005-009-010>012-018-019-290600-
NORTH CENTRAL WISCONSIN

CITY           SKY/WX    TMP DP  RH WIND       PRES   REMARKS
IRONWOOD       CLOUDY    28  23  80 CALM      29.78S
MANITOWISH WTR NOT AVBL
ARBOR VITAE    NOT AVBL
EAGLE RIVER    NOT AVBL
LAND O LAKES   NOT AVBL
RHINELANDER    CLOUDY    26  20  77 S3        29.79F
PHILLIPS       NOT AVBL
ANTIGO         NOT AVBL
TOMAHAWK       NOT AVBL
MERRILL        NOT AVBL
$$

WIZ013-073-290600-
NORTHEAST WISCONSIN

CITY           SKY/WX    TMP DP  RH WIND       PRES   REMARKS
IRON MOUNTAIN  CLOUDY    28  23  81 SE9       29.82F
MARINETTE      CLOUDY    30  23  74 S9        29.86F
$$

WIZ017-030-035>037-045-290600-
CENTRAL WISCONSIN

CITY           SKY/WX    TMP DP  RH WIND       PRES   REMARKS
MEDFORD        NOT AVBL
WAUSAU         CLOUDY    27  21  78 SE8       29.80F
MOSINEE        NOT AVBL
MARSHFIELD     CLOUDY    27  22  81 SE6       29.80F HAZE
WISC RAPIDS    CLOUDY    28  20  71 E3        29.82F
STEVENS POINT  NOT AVBL
WAUPACA        NOT AVBL
SHAWANO        NOT AVBL
CLINTONVILLE   NOT AVBL
$$

WIZ038-039-048-051-290600-
FOX VALLEY

CITY           SKY/WX    TMP DP  RH WIND       PRES   REMARKS
NWS GREEN BAY  CLOUDY    32  25  75 S8        29.86F
APPLETON       CLOUDY    30  23  74 SE7       29.85F
OSHKOSH        CLOUDY    31  22  69 S3        29.83F
FOND DU LAC    CLOUDY    31  22  69 S9        29.82F
$$

WIZ022-050-052-290600-
EAST CENTRAL WISCONSIN

CITY           SKY/WX    TMP DP  RH WIND       PRES   REMARKS
STURGEON BAY   CLOUDY    32  23  69 S14G23    29.88F
MANITOWOC      NOT AVBL
SHEBOYGAN      CLOUDY    33  24  69 S13       29.85F
$$

LMZ563-521-522-541>543-290600-
LAKESHORE

STATION/POSITION TIME  TEMP    WIND        PRES    VSBY  WAVE
                       AIR SEA DIR/SP/G                  HT/PER
                 (UTC) (F)     (DEG/KT/KT) (MB)    (MI)  (FT/S)
SHEBOYGAN LKSHOR 0400   34     170/ 26/ 30 1012.3F
KEWAUNEE LKSHORE 0400   33     180/ 17/ 24 1011.2F
NORTHPORT PIER   0400   32     150/ 10/ 17 1012.5F
SISTER BAY LKSHO 0400   32     180/ 15/ 18   N/A
CHAMBERS ISLAND  0400   31     150/  6/  9 1012.9F
MENOMINEE LKSHOR 0400   31     150/  8     1012.3F
$$


USA.gov is the U.S. government's official web portal to all federal, state and local government web resources and services.